This demonstration page uses our WeatherBlox Daily Observations layout. Learn more.

Left ArrowRight Arrow

39.29038, -76.61219

Hourly Observations for May 3, 2017

Temp ( °F °C ) Dew Point ( °F °C ) Humidity (%) Winds ( mph kmh ) Pressure ( in mb ) Visibility ( mi km ) Precip ( " mm )
12:54 am 00:54 undefined 65 18.3 37 2.8 36 36 undefined N/A 29.84 1011 N/A 0.00 0.00
1:54 am 01:54 undefined 66 18.9 37 2.8 34 34 undefined N/A 29.84 1010 N/A 0.00 0.00
2:54 am 02:54 undefined 66 18.9 37 2.8 34 34 undefined N/A 29.84 1011 N/A 0.00 0.00
3:54 am 03:54 undefined 65 18.3 37 2.8 36 36 undefined N/A 29.85 1011 N/A 0.00 0.00
4:54 am 04:54 undefined 64 17.8 38 3.3 38 38 undefined N/A 29.87 1012 N/A 0.00 0.00
5:54 am 05:54 undefined 62 16.7 38 3.3 41 41 undefined N/A 29.89 1012 N/A 0.00 0.00
6:54 am 06:54 undefined 62 16.7 39 3.9 43 43 undefined N/A 29.92 1013 N/A 0.00 0.00
7:54 am 07:54 undefined 62 16.7 38 3.3 41 41 undefined N/A 29.94 1014 N/A 0.00 0.00
8:54 am 08:54 undefined 61 16.1 35 1.7 38 38 undefined N/A 29.98 1015 N/A 0.00 0.00
9:54 am 09:54 undefined 61 16.1 31 -0.6 32 32 undefined N/A 29.99 1016 N/A 0.00 0.00
10:54 am 10:54 undefined 62 16.7 32 0 32 32 undefined N/A 30.02 1017 N/A 0.00 0.00
11:54 am 11:54 undefined 62 16.7 32 0 32 32 undefined N/A 30.05 1018 N/A 0.00 0.00
12:54 pm 12:54 undefined 61 16.1 33 0.6 35 35 undefined N/A 30.06 1018 N/A 0.00 0.00
1:54 pm 13:54 undefined 63 17.2 33 0.6 33 33 undefined N/A 30.06 1018 N/A 0.00 0.00
2:54 pm 14:54 undefined 64 17.8 34 1.1 33 33 undefined N/A 30.07 1018 N/A 0.00 0.00
3:54 pm 15:54 undefined 64 17.8 35 1.7 34 34 undefined N/A 30.06 1018 N/A 0.00 0.00
4:54 pm 16:54 undefined 65 18.3 34 1.1 32 32 undefined N/A 30.06 1018 N/A 0.00 0.00
5:54 pm 17:54 undefined 65 18.3 34 1.1 32 32 undefined N/A 30.06 1018 N/A 0.00 0.00
6:54 pm 18:54 undefined 64 17.8 33 0.6 32 32 undefined N/A 30.08 1019 N/A 0.00 0.00
7:54 pm 19:54 undefined 64 17.8 33 0.6 32 32 undefined N/A 30.13 1020 N/A 0.00 0.00
8:54 pm 20:54 undefined 62 16.7 35 1.7 37 37 undefined N/A 30.17 1022 N/A 0.00 0.00
9:54 pm 21:54 undefined 61 16.1 36 2.2 39 39 undefined N/A 30.19 1022 N/A 0.00 0.00
10:54 pm 22:54 undefined 61 16.1 35 1.7 38 38 undefined N/A 30.19 1022 N/A 0.00 0.00
11:54 pm 23:54 undefined 60 15.6 35 1.7 39 39 undefined N/A 30.18 1022 N/A 0.00 0.00

Powered by AerisWeather